Location: Runa
(38.1429°N, 80.8510°W)
Time: 23:51:23
(UTC+00:00)

ISS - Pass Details

Date: 19 April 2026
Orbit: 414 x 424 km, 51.6° (Epoch: 15 May)

Event Time Altitude Azimuth Distance (km) Brightness Sun altitude
Exits shadow 08:52:29 33° 142° (SE) 715 -2.6 -20.5°
Maximum altitude 08:52:41 34° 134° (SE) 711 -2.6 -20.4°
Drops below altitude 10° 08:55:46 10° 68° (ENE) 1,500 0.2 -19.9°
Sets 08:57:59 0° 59° (ENE) 2,369 1.7 -19.6°
